GW5964 Weather Reports


time (UTC)temp
C
wind
direction
speed
KPH
gust
KPH
rain 1hr
cm
rain 24hr
cm
rain mn
cm
humidity
%
barometer
mb
20260508111409 0 89 0.0 0.0 0.00 0.00 0.00 98 1017.4
20260508110907 0 89 0.0 0.0 0.00 0.00 0.00 98 1017.4
20260508110404 0 89 0.0 0.0 0.00 0.00 0.00 98 1017.4
20260508105904 0 102 0.0 0.0 0.00 0.00 0.00 98 1017.2
20260508105400 0 105 0.0 0.0 0.00 0.00 0.00 98 1017.3
20260508104858 0 91 0.0 0.0 0.00 0.00 0.00 98 1017.2
20260508104355 0 97 0.0 0.0 0.00 0.00 0.00 98 1017.2
20260508103852 0 97 0.0 0.0 0.00 0.00 0.00 98 1017.2
20260508103349 0 100 0.0 0.0 0.00 0.00 0.00 98 1017.1
20260508102846 0 100 0.0 0.0 0.00 0.00 0.00 98 1017.0
20260508102344 0 100 0.0 0.0 0.00 0.00 0.00 98 1017.0
20260508101841 0 100 0.0 0.0 0.00 0.00 0.00 98 1017.3
20260508101339 0 100 0.0 0.0 0.00 0.00 0.00 98 1017.1
20260508100836 0 87 0.0 0.0 0.00 0.00 0.00 98 1016.9
20260508100335 -1 87 0.0 0.0 0.00 0.00 0.00 98 1017.0
20260508095830 -1 87 0.0 0.0 0.00 0.00 0.00 98 1016.9
20260508095328 0 87 0.0 0.0 0.00 0.00 0.00 98 1016.8
20260508094825 0 87 0.0 0.0 0.00 0.00 0.00 98 1016.7
20260508094322 0 87 0.0 0.0 0.00 0.00 0.00 98 1016.7
20260508093818 0 87 0.0 0.0 0.00 0.00 0.00 98 1016.7
20260508093316 0 87 0.0 0.0 0.00 0.00 0.00 98 1016.6
20260508092813 0 87 0.0 0.0 0.00 0.00 0.00 98 1016.7
20260508092313 0 87 0.0 0.0 0.00 0.00 0.00 98 1016.7
20260508091809 0 87 0.0 0.0 0.00 0.00 0.00 98 1016.6
20260508091305 0 87 0.0 0.0 0.00 0.00 0.00 98 1016.5
20260508090803 0 88 0.0 0.0 0.00 0.00 0.00 98 1016.4
20260508090301 0 87 0.0 0.0 0.00 0.00 0.00 97 1016.4
20260508085757 0 88 0.0 0.0 0.00 0.00 0.00 97 1016.4
20260508085254 0 87 0.0 0.0 0.00 0.00 0.00 97 1016.5
20260508084749 0 87 0.0 0.0 0.00 0.00 0.00 97 1016.6
20260508084247 0 88 0.0 0.0 0.00 0.00 0.00 97 1016.4
20260508083745 0 87 0.0 0.0 0.00 0.00 0.00 97 1016.4
20260508083242 0 87 0.0 0.0 0.00 0.00 0.00 97 1016.4
20260508082737 0 87 0.0 0.0 0.00 0.00 0.00 97 1016.4
20260508082235 0 87 0.0 0.0 0.00 0.00 0.00 97 1016.3
20260508081732 0 88 0.0 0.0 0.00 0.00 0.00 97 1016.3
20260508081229 0 87 0.0 0.0 0.00 0.00 0.00 97 1016.3
20260508080726 0 87 0.0 0.0 0.00 0.00 0.00 97 1016.5
20260508080224 0 87 0.0 0.0 0.00 0.00 0.00 97 1016.4
20260508075720 0 87 0.0 0.0 0.00 0.00 0.00 97 1016.4
20260508075217 0 87 0.0 0.0 0.00 0.00 0.00 97 1016.4
20260508074715 0 88 0.0 0.0 0.00 0.00 0.00 97 1016.4
20260508074212 0 87 0.0 0.0 0.00 0.00 0.00 96 1016.2
20260508073708 0 88 0.0 0.0 0.00 0.00 0.00 96 1016.3
20260508073207 0 87 0.0 0.0 0.00 0.00 0.00 96 1016.2
20260508072702 0 87 0.0 0.0 0.00 0.00 0.00 96 1016.4
20260508072159 0 87 0.0 0.0 0.00 0.00 0.00 96 1016.1
20260508071657 0 88 0.0 0.0 0.00 0.00 0.00 96 1016.2
20260508071155 0 88 0.0 0.0 0.00 0.00 0.00 96 1016.1
20260508070652 0 87 0.0 0.0 0.00 0.00 0.00 96 1015.8
20260508070151 0 88 0.0 0.0 0.00 0.00 0.00 96 1016.2
20260508065647 0 87 0.0 0.0 0.00 0.00 0.00 96 1016.2
20260508065145 0 87 0.0 0.0 0.00 0.00 0.00 96 1016.4
20260508064643 1 87 0.0 0.0 0.00 0.00 0.00 96 1016.2
20260508064141 1 87 0.0 0.0 0.00 0.00 0.00 96 1016.3
20260508063638 1 87 0.0 0.0 0.00 0.00 0.00 95 1016.5
20260508063136 1 88 0.0 0.0 0.00 0.00 0.00 95 1016.3
20260508062633 1 88 0.0 0.0 0.00 0.00 0.00 95 1016.5
20260508062130 1 87 0.0 0.0 0.00 0.00 0.00 95 1016.5
20260508061627 1 87 0.0 0.0 0.00 0.00 0.00 95 1016.4
20260508061125 1 88 0.0 0.0 0.00 0.00 0.00 95 1016.3
20260508060621 1 88 0.0 0.0 0.00 0.00 0.00 95 1016.3
20260508060118 1 88 0.0 0.0 0.00 0.00 0.00 95 1016.5
20260508055614 1 88 0.0 0.0 0.00 0.00 0.00 95 1016.5
20260508055111 1 85 0.0 0.0 0.00 0.00 0.00 94 1016.3
20260508054607 1 84 0.0 0.0 0.00 0.00 0.00 94 1016.3
20260508054105 1 84 0.0 0.0 0.00 0.00 0.00 94 1016.3
20260508053601 1 90 0.0 0.0 0.00 0.00 0.00 94 1016.2
20260508053100 1 85 0.0 0.0 0.00 0.00 0.00 93 1016.3
20260508052557 1 95 0.0 0.0 0.00 0.00 0.00 93 1016.2
20260508052054 2 88 0.0 0.0 0.00 0.00 0.00 93 1016.3
20260508051549 2 90 0.0 0.0 0.00 0.00 0.00 93 1016.2
20260508051044 2 86 0.0 0.0 0.00 0.00 0.00 93 1016.1
20260508050541 2 102 0.0 0.0 0.00 0.00 0.00 93 1016.0
20260508050039 2 93 0.0 0.0 0.00 0.00 0.00 93 1016.2
20260508045535 2 99 0.0 0.0 0.00 0.00 0.00 93 1016.1
20260508045033 2 84 0.0 0.0 0.00 0.00 0.00 93 1016.3
20260508044530 2 85 0.0 0.0 0.00 0.00 0.00 93 1016.3
20260508044026 2 111 0.0 0.0 0.00 0.00 0.00 93 1016.1
20260508043522 2 85 0.0 0.0 0.00 0.00 0.00 92 1016.4
20260508043019 2 86 0.0 0.0 0.00 0.00 0.00 92 1016.1
20260508042516 2 82 0.0 0.0 0.00 0.00 0.00 92 1016.4
20260508042014 3 82 0.0 0.0 0.00 0.00 0.00 92 1016.2
20260508041509 3 83 0.0 0.0 0.00 0.00 0.00 92 1016.1
20260508041006 3 87 0.0 0.0 0.00 0.00 0.00 92 1016.0
20260508040503 3 87 0.0 0.0 0.00 0.00 0.00 91 1016.0
20260508040001 3 93 0.0 0.0 0.00 0.00 0.00 92 1015.8
20260508035458 3 79 0.0 0.0 0.00 0.00 0.00 91 1016.0
20260508034954 3 82 0.0 0.0 0.00 0.00 0.00 91 1016.1
20260508034452 3 92 0.0 0.0 0.00 0.00 0.00 91 1016.0
20260508033948 3 88 0.0 0.0 0.00 0.00 0.00 91 1016.0
20260508033447 3 87 0.0 0.0 0.00 0.00 0.00 91 1015.8
20260508032944 3 109 0.0 0.0 0.00 0.00 0.00 91 1015.8
20260508032441 3 82 0.0 0.0 0.00 0.00 0.00 91 1015.8
20260508031937 3 76 0.0 0.0 0.00 0.00 0.00 91 1015.7
20260508031435 4 87 0.0 0.0 0.00 0.00 0.00 91 1015.8
20260508030931 4 102 0.0 0.0 0.00 0.00 0.00 90 1016.0
20260508030428 4 91 0.0 0.0 0.00 0.00 0.00 90 1015.5
20260508025925 4 86 0.0 0.0 0.00 0.00 0.00 90 1015.6
20260508025421 5 86 0.0 0.0 0.00 0.00 0.00 90 1015.4
20260508024918 5 86 0.0 0.0 0.00 0.00 0.00 89 1015.4
20260508024416 5 81 0.0 0.0 0.00 0.00 0.00 89 1015.3
20260508023912 5 86 0.0 0.0 0.00 0.00 0.00 88 1015.4
20260508023409 5 85 0.0 0.0 0.00 0.00 0.00 88 1015.2
20260508022907 5 88 0.0 0.0 0.00 0.00 0.00 88 1015.2
20260508022402 5 86 0.0 0.0 0.00 0.00 0.00 87 1015.2
20260508021859 5 75 0.0 0.0 0.00 0.00 0.00 87 1014.8
20260508021355 5 73 1.6 1.6 0.00 0.00 0.00 87 1014.9
20260508020850 5 1 4.8 4.8 0.00 0.00 0.00 87 1014.9
20260508020348 6 85 0.0 0.0 0.00 0.00 0.00 87 1014.8
20260508015845 6 85 0.0 0.0 0.00 0.00 0.00 86 1014.8
20260508015343 6 84 0.0 0.0 0.00 0.00 0.00 86 1014.7
20260508014839 6 86 0.0 0.0 0.00 0.00 0.00 86 1014.6
20260508014338 6 83 0.0 0.0 0.00 0.00 0.00 85 1014.7
20260508013837 6 80 0.0 0.0 0.00 0.00 0.00 85 1014.7
20260508013334 7 83 0.0 0.0 0.00 0.00 0.00 84 1014.6
20260508012831 7 78 0.0 0.0 0.00 0.00 0.00 84 1014.6
20260508012328 7 91 0.0 0.0 0.00 0.00 0.00 84 1014.3
20260508011826 7 105 0.0 0.0 0.00 0.00 0.00 83 1014.4
20260508011324 7 57 1.6 3.2 0.00 0.00 0.00 82 1014.4
20260508010820 7 84 0.0 0.0 0.00 0.00 0.00 82 1014.0
20260508010318 7 90 0.0 0.0 0.00 0.00 0.00 81 1014.1
20260508005815 8 86 0.0 0.0 0.00 0.00 0.00 81 1013.9
20260508005312 8 79 0.0 0.0 0.00 0.00 0.00 81 1014.0
20260508004808 8 85 0.0 0.0 0.00 0.00 0.00 80 1014.0
20260508004304 8 84 0.0 0.0 0.00 0.00 0.00 78 1014.0
20260508003801 9 80 0.0 0.0 0.00 0.00 0.00 78 1013.8
20260508003258 9 78 0.0 0.0 0.00 0.00 0.00 76 1014.0
20260508002754 9 81 0.0 0.0 0.00 0.00 0.00 77 1013.7
20260508002252 10 61 1.6 1.6 0.00 0.00 0.00 76 1013.7
20260508001748 10 51 1.6 1.6 0.00 0.00 0.00 75 1013.7
20260508001243 11 87 0.0 0.0 0.00 0.00 0.00 65 1013.5
20260508000740 11 136 1.6 1.6 0.00 0.00 0.00 62 1013.5
20260508000237 11 76 3.2 3.2 0.00 0.00 0.00 71 1013.5
20260507235733 11 69 1.6 1.6 0.00 0.00 0.00 71 1013.3
20260507235231 12 120 0.0 0.0 0.00 0.00 0.00 57 1013.4
20260507234728 12 111 1.6 3.2 0.00 0.00 0.00 58 1013.3
20260507234224 12 86 0.0 0.0 0.00 0.00 0.00 57 1013.3
20260507233721 12 304 4.8 6.4 0.00 0.00 0.00 56 1013.3
20260507233219 13 249 3.2 4.8 0.00 0.00 0.00 55 1013.3
20260507232716 13 280 6.4 9.7 0.00 0.00 0.00 54 1013.4
20260507232213 13 144 1.6 3.2 0.00 0.00 0.00 53 1013.2
20260507231709 14 232 6.4 9.7 0.00 0.00 0.00 52 1013.2
20260507231206 14 143 1.6 3.2 0.00 0.00 0.00 53 1013.2
20260507230703 14 301 4.8 4.8 0.00 0.00 0.00 54 1013.2
20260507230200 14 215 1.6 4.8 0.00 0.00 0.00 53 1013.1
20260507225700 13 149 3.2 3.2 0.00 0.00 0.00 54 1013.2
20260507225157 13 47 1.6 3.2 0.00 0.00 0.00 53 1013.1
20260507224652 14 260 6.4 6.4 0.00 0.00 0.00 54 1013.2
20260507224149 14 295 8.0 11.3 0.00 0.00 0.00 54 1013.0
20260507223645 15 284 14.5 17.7 0.00 0.00 0.00 52 1013.2
20260507223142 14 285 3.2 4.8 0.00 0.00 0.00 55 1012.9
20260507222639 14 111 6.4 9.7 0.00 0.00 0.00 55 1012.9
20260507222135 14 117 3.2 4.8 0.00 0.00 0.00 56 1013.0
20260507221632 13 282 9.7 12.9 0.00 0.00 0.00 55 1013.0
20260507221128 15 306 3.2 3.2 0.00 0.00 0.00 57 1013.0
20260507220626 15 71 1.6 1.6 0.00 0.00 0.00 54 1012.8
20260507220123 15 298 8.0 9.7 0.00 0.00 0.00 57 1012.6
20260507215619 14 199 9.7 11.3 0.00 0.00 0.00 55 1012.8
20260507215117 14 262 9.7 11.3 0.00 0.00 0.00 56 1012.6
20260507214614 13 64 1.6 4.8 0.00 0.00 0.00 57 1012.6
20260507214110 15 82 3.2 3.2 0.00 0.00 0.00 55 1012.6
20260507213606 15 217 11.3 14.5 0.00 0.00 0.00 54 1012.7
20260507213104 15 188 6.4 11.3 0.00 0.00 0.00 54 1012.6
20260507212559 15 235 4.8 4.8 0.00 0.00 0.00 55 1012.3
20260507212056 15 277 3.2 4.8 0.00 0.00 0.00 54 1012.4
20260507211553 14 274 12.9 14.5 0.00 0.00 0.00 56 1012.3
20260507211049 15 290 8.0 9.7 0.00 0.00 0.00 55 1012.2
20260507210547 15 341 11.3 16.1 0.00 0.00 0.00 58 1012.1
20260507210043 15 73 0.0 1.6 0.00 0.00 0.00 61 1012.1
20260507205540 15 180 6.4 12.9 0.00 0.00 0.00 58 1012.2
20260507205036 14 268 6.4 11.3 0.00 0.00 0.00 59 1012.4
20260507204532 13 321 3.2 3.2 0.00 0.00 0.00 60 1012.3
20260507204030 13 9 11.3 14.5 0.00 0.00 0.00 58 1012.2
20260507203528 15 155 6.4 9.7 0.00 0.00 0.00 58 1012.2
20260507203025 14 45 9.7 16.1 0.00 0.00 0.00 58 1012.1
20260507202521 15 88 0.0 0.0 0.00 0.00 0.00 60 1012.1
20260507202017 14 329 6.4 6.4 0.00 0.00 0.00 59 1012.0
20260507201513 14 153 1.6 3.2 0.00 0.00 0.00 58 1012.2
20260507201009 15 158 6.4 14.5 0.00 0.00 0.00 56 1012.1
20260507200506 15 89 1.6 3.2 0.00 0.00 0.00 61 1011.9
20260507200002 14 347 3.2 3.2 0.00 0.00 0.00 56 1012.2
20260507195459 13 316 4.8 4.8 0.00 0.00 0.00 59 1012.4
20260507194956 13 208 11.3 14.5 0.00 0.00 0.00 58 1012.6
20260507194452 14 292 16.1 17.7 0.00 0.00 0.00 58 1012.4
20260507193948 14 160 4.8 6.4 0.00 0.00 0.00 59 1012.8
20260507193446 15 149 1.6 3.2 0.00 0.00 0.00 61 1012.7
20260507192942 14 296 3.2 4.8 0.00 0.00 0.00 60 1012.4
20260507192438 13 111 3.2 3.2 0.00 0.00 0.00 63 1012.7
20260507191936 13 60 1.6 3.2 0.00 0.00 0.00 61 1012.9
20260507191431 13 132 3.2 6.4 0.00 0.00 0.00 63 1012.7
20260507190928 13 281 8.0 11.3 0.00 0.00 0.00 62 1012.9
20260507190426 13 52 3.2 4.8 0.00 0.00 0.00 60 1012.8
20260507185925 13 125 3.2 3.2 0.00 0.00 0.00 64 1012.9
20260507185422 13 169 1.6 3.2 0.00 0.00 0.00 61 1013.1
20260507184918 13 267 6.4 6.4 0.00 0.00 0.00 64 1013.1
20260507184416 13 204 6.4 6.4 0.00 0.00 0.00 67 1013.1
20260507183914 13 65 0.0 1.6 0.00 0.00 0.00 64 1013.0
20260507183410 12 155 0.0 1.6 0.00 0.00 0.00 66 1013.3
20260507182908 12 212 3.2 4.8 0.00 0.00 0.00 66 1013.3
20260507182403 12 296 6.4 11.3 0.00 0.00 0.00 65 1013.3
20260507181900 13 266 6.4 6.4 0.00 0.00 0.00 65 1013.3
20260507181356 12 64 1.6 1.6 0.00 0.00 0.00 67 1013.4
20260507180853 12 166 3.2 6.4 0.00 0.00 0.00 68 1013.2
20260507180349 12 40 3.2 4.8 0.00 0.00 0.00 67 1013.3
20260507175845 12 293 4.8 6.4 0.00 0.00 0.00 69 1013.2
20260507175343 12 123 0.0 1.6 0.00 0.00 0.00 69 1013.3
20260507174840 12 320 6.4 6.4 0.00 0.00 0.00 67 1013.3
20260507174337 12 356 3.2 3.2 0.00 0.00 0.00 69 1013.3
20260507173835 12 240 4.8 6.4 0.00 0.00 0.00 69 1013.3
20260507173332 12 233 4.8 6.4 0.00 0.00 0.00 68 1013.5
20260507172828 11 358 6.4 9.7 0.00 0.00 0.00 67 1013.3
20260507172325 12 295 4.8 4.8 0.00 0.00 0.00 69 1013.4
20260507171820 12 31 0.0 1.6 0.00 0.00 0.00 66 1013.5
20260507171317 12 286 3.2 3.2 0.00 0.00 0.00 65 1013.4
20260507170814 12 276 1.6 1.6 0.00 0.00 0.00 66 1013.4
20260507170311 13 230 3.2 3.2 0.00 0.00 0.00 63 1013.4
20260507165807 12 284 4.8 4.8 0.00 0.00 0.00 65 1013.5
20260507165306 12 46 3.2 3.2 0.00 0.00 0.00 64 1013.5
20260507164759 12 100 4.8 4.8 0.00 0.00 0.00 64 1013.5
20260507164256 12 164 1.6 1.6 0.00 0.00 0.00 64 1013.7
20260507163754 12 58 3.2 4.8 0.00 0.00 0.00 61 1013.7
20260507163251 11 119 3.2 3.2 0.00 0.00 0.00 65 1013.7
20260507162747 12 103 3.2 3.2 0.00 0.00 0.00 64 1013.6
20260507162243 12 17 3.2 4.8 0.00 0.00 0.00 59 1013.8
20260507161740 12 85 0.0 0.0 0.00 0.00 0.00 62 1013.9
20260507161237 12 100 1.6 3.2 0.00 0.00 0.00 61 1013.7
20260507160733 11 100 3.2 4.8 0.00 0.00 0.00 63 1014.0
20260507160230 11 74 1.6 1.6 0.00 0.00 0.00 60 1013.8
20260507155726 12 17 6.4 9.7 0.00 0.00 0.00 65 1013.6
20260507155222 11 124 0.0 1.6 0.00 0.00 0.00 65 1013.9
20260507154719 11 160 1.6 3.2 0.00 0.00 0.00 68 1013.8
20260507154216 11 70 1.6 1.6 0.00 0.00 0.00 67 1013.8
20260507153712 11 71 0.0 1.6 0.00 0.00 0.00 65 1014.0
20260507153209 11 33 3.2 4.8 0.00 0.00 0.00 66 1014.0
20260507152705 11 5 1.6 1.6 0.00 0.00 0.00 65 1013.9
20260507152201 11 18 3.2 4.8 0.00 0.00 0.00 62 1014.1
20260507151657 10 52 4.8 6.4 0.00 0.00 0.00 63 1014.0
20260507151154 10 300 3.2 3.2 0.00 0.00 0.00 64 1014.0
20260507150651 11 68 0.0 0.0 0.00 0.00 0.00 63 1014.3
20260507150148 10 296 4.8 9.7 0.00 0.00 0.00 64 1014.1
20260507145643 10 53 0.0 1.6 0.00 0.00 0.00 68 1014.4
20260507145141 10 31 4.8 6.4 0.00 0.00 0.00 64 1014.3
20260507144637 11 13 4.8 4.8 0.00 0.00 0.00 67 1014.3
20260507144136 11 316 6.4 6.4 0.00 0.00 0.00 67 1013.9
20260507143632 10 67 0.0 0.0 0.00 0.00 0.00 70 1014.0
20260507143129 10 88 1.6 1.6 0.00 0.00 0.00 70 1014.1
20260507142625 10 166 1.6 1.6 0.00 0.00 0.00 71 1014.0
20260507142122 10 270 3.2 6.4 0.00 0.00 0.00 75 1014.1
20260507141618 10 68 1.6 3.2 0.00 0.00 0.00 76 1014.1
20260507141115 10 105 1.6 3.2 0.00 0.00 0.00 75 1014.3
20260507140611 10 90 0.0 0.0 0.00 0.00 0.00 80 1014.3
20260507140109 9 157 3.2 3.2 0.00 0.00 0.00 78 1014.4
20260507135606 10 39 1.6 1.6 0.00 0.00 0.00 79 1014.4
20260507135103 9 290 3.2 3.2 0.00 0.00 0.00 81 1014.6
20260507134559 9 27 3.2 4.8 0.00 0.00 0.00 82 1014.5
20260507134056 9 6 1.6 1.6 0.00 0.00 0.00 82 1014.6
20260507133551 9 269 3.2 4.8 0.00 0.00 0.00 84 1014.7
20260507133049 8 1 1.6 4.8 0.00 0.00 0.00 83 1014.7
20260507132545 8 70 0.0 0.0 0.00 0.00 0.00 83 1014.6
20260507132042 8 97 0.0 0.0 0.00 0.00 0.00 84 1014.7
20260507131539 8 349 1.6 3.2 0.00 0.00 0.00 83 1014.7
20260507131037 8 74 0.0 0.0 0.00 0.00 0.00 84 1014.5
20260507130533 8 93 0.0 1.6 0.00 0.00 0.00 84 1014.7
20260507130032 8 70 0.0 0.0 0.00 0.00 0.00 83 1014.7
20260507125530 8 75 0.0 0.0 0.00 0.00 0.00 84 1014.8
20260507125027 8 82 0.0 0.0 0.00 0.00 0.00 83 1014.8
20260507124523 8 73 0.0 1.6 0.00 0.00 0.00 86 1014.8
20260507124021 8 98 0.0 0.0 0.00 0.00 0.00 86 1014.8
20260507123519 8 90 0.0 0.0 0.00 0.00 0.00 86 1014.8
20260507123015 8 120 1.6 1.6 0.00 0.00 0.00 86 1014.9
20260507122510 8 79 0.0 0.0 0.00 0.00 0.00 86 1014.7
20260507122007 8 63 1.6 1.6 0.00 0.00 0.00 85 1014.6
20260507121503 8 80 0.0 0.0 0.00 0.00 0.00 86 1014.7
20260507120958 7 80 0.0 0.0 0.00 0.00 0.00 85 1014.4
20260507120455 7 79 0.0 0.0 0.00 0.00 0.00 86 1014.7
20260507115952 7 85 1.6 1.6 0.00 0.00 0.00 85 1014.7
20260507115448 7 1 4.8 4.8 0.00 0.00 0.00 86 1014.6
20260507114943 7 74 0.0 1.6 0.00 0.00 0.00 87 1014.6
20260507114440 7 82 0.0 0.0 0.00 0.00 0.00 86 1014.5
20260507113937 8 70 0.0 0.0 0.00 0.00 0.00 88 1014.5
20260507113434 7 69 0.0 0.0 0.00 0.00 0.00 88 1014.5
20260507112932 7 75 0.0 0.0 0.00 0.00 0.00 88 1014.4
20260507112429 7 116 0.0 0.0 0.00 0.00 0.00 89 1014.5
20260507111926 7 30 0.0 0.0 0.00 0.00 0.00 89 1014.3